Regional Weather Roundup
Issued by NWS

Home | Current Version | Previous Version | Graphics & Text | Print | Product List | Glossary Off
Versions: 1 2 3 4 5 6 7 8 9 10 11 12 13 14 15 16 17 18 19 20 21 22 23 24 25 26 27 28 29 30 31 32 33 34 35 36 37 38 39 40 41 42 43 44 45 46 47 48 49 50

000
ASUS43 KTOP 240759
RWRKS

WEATHER ROUNDUP FOR KANSAS
NATIONAL WEATHER SERVICE GOODLAND KS
300 AM CDT TUE MAY 24 2016

NOTE:  "FAIR" INDICATES FEW OR NO CLOUDS BELOW 12,000 FEET WITH NO
SIGNIFICANT WEATHER AND/OR OBSTRUCTIONS TO VISIBILITY.

KSZ001>006-013>018-027>032-041>047-240900-
NORTHWEST KANSAS

CITY           SKY/WX    TMP DP  RH WIND       PRES   REMARKS
GOODLAND       MOCLDY    53  46  77 NE6       29.82F
HAYS           CLOUDY    66  55  68 E7        29.79F
HILL CITY      TSTM      61  59  93 NE17      29.82F FOG
RUSSELL        LGT RAIN  64  57  78 NE15      29.81F
$$

KSZ061>065-074>080-084>089-240900-
SOUTHWEST KANSAS

CITY           SKY/WX    TMP DP  RH WIND       PRES   REMARKS
DODGE CITY     PTCLDY    67  66  97 S18G29    29.73F
ELKHART          N/A     65  60  84 S14         N/A
GARDEN CITY    MOCLDY    67  65  93 S17       29.73F
GREAT BEND     CLOUDY    72  63  73 S10       29.77F
LIBERAL        CLEAR     66  61  82 S8        29.77F
$$

KSZ066>073-081>083-090>101-240900-
SOUTHEAST KANSAS

CITY           SKY/WX    TMP DP  RH WIND       PRES   REMARKS
CHANUTE        CLOUDY    65  62  90 SE8       29.85F
COFFEYVILLE    MOCLDY    66  63  90 SE6       29.85F
HUTCHINSON     CLOUDY    69  67  93 SE9       29.79F
MEDICINE LODGE   N/A     69  66  90 S8        29.76F
NEWTON         CLOUDY    66  63  88 S13       29.84S
PARSONS        CLOUDY    67  64  90 SE6       29.86F
WICHITA INTL   CLOUDY    70  66  87 S9        29.79F
WICHITA JABRA  CLOUDY    68  66  93 SE9       29.81S
WINFIELD       CLOUDY    69  65  86 SE8       29.81F
$$

KSZ007>012-019>026-033>040-048>060-102>105-240900-
NORTHEAST KANSAS

CITY           SKY/WX    TMP DP  RH WIND       PRES   REMARKS
CONCORDIA      TSTM      62  58  86 S16       29.83F
EMPORIA        CLOUDY    64  62  93 SE6       29.86R
LAWRENCE       PTCLDY    61  60  97 E6        29.87F
MANHATTAN      CLOUDY    68  62  81 CALM      29.84S
OLATHE IND     MOCLDY    62  61  96 S8        29.89S
OLATHE EXE     MOCLDY    61  60  97 S8        29.88F
SALINA         CLOUDY    70  67  90 SE7       29.84R
TOPEKA BILLARD PTCLDY    63  60  90 E5        29.86F
TOPEKA FORBES  CLEAR     63  60  90 SE5       29.86F
$$




USA.gov is the U.S. government's official web portal to all federal, state and local government web resources and services.